Location: Newark
(45.6000°N, 10.5333°E)
Time: 06:38:16
(UTC+00:00)

Envisat - Visible Passes

Search period start: 22 October 2019 00:00
Search period end: 01 November 2019 00:00
Orbit: 764 x 766 km, 98.1° (Epoch: 21 October)

Date Brightness Start Highest point End Pass type
(mag) Time Alt. Az. Time Alt. Az. Time Alt. Az.
22 Oct 6.1 05:02:14 10° NE 05:05:28 17° E 05:08:41 10° SE visible
22 Oct 4.4 17:57:02 10° SSW 18:01:47 40° W 18:06:34 10° NNW visible
23 Oct 3.1 17:19:50 10° SSE 17:24:55 85° WSW 17:30:02 10° NNW visible
23 Oct 6.2 19:03:21 10° WSW 19:04:42 11° W 19:06:03 10° WNW visible
24 Oct 3.3 16:43:24 10° SE 16:48:15 46° ENE 16:53:06 10° N visible
24 Oct 5.3 18:23:24 10° SSW 18:27:28 24° W 18:31:34 10° NW visible
25 Oct 6.3 04:51:39 10° ENE 04:54:03 13° E 04:56:27 10° ESE visible
25 Oct 3.9 17:45:33 10° S 17:50:28 50° W 17:55:26 10° NNW visible
26 Oct 2.9 17:08:35 10° SSE 17:13:39 78° ENE 17:18:45 10° N visible
26 Oct 6.0 18:50:38 10° WSW 18:53:16 14° W 18:55:55 10° WNW visible
27 Oct 5.9 05:15:53 10° NE 05:19:52 23° E 05:23:50 10° SE visible
27 Oct 5.0 18:11:42 10° SSW 18:16:07 30° W 18:20:34 10° NW visible
28 Oct 6.7 04:42:00 10° ENE 04:42:38 10° E 04:43:15 10° E visible
28 Oct 3.5 17:34:08 10° S 17:39:10 63° W 17:44:14 10° NNW visible
29 Oct 3.0 16:57:25 10° SSE 17:02:25 62° ENE 17:07:26 10° N visible
29 Oct 5.7 18:38:29 10° SW 18:41:52 18° W 18:45:16 10° NW visible
30 Oct 6.0 05:05:01 10° NE 05:08:29 18° E 05:11:56 10° SE visible
30 Oct 4.5 18:00:06 10° SSW 18:04:46 37° W 18:09:29 10° NNW visible
31 Oct 3.1 17:22:48 10° S 17:27:53 79° WSW 17:33:00 10° NNW visible
